Regional Weather Roundup
Issued by NWS Charleston, SC

Home | Current Version | Previous Version | Text Only | Print | Product List | Glossary On
Versions: 1 2 3 4 5 6 7 8 9 10 11 12 13 14 15 16 17 18 19 20 21 22 23 24 25 26 27 28 29 30 31 32 33 34 35 36 37 38 39 40 41 42 43 44 45 46 47 48 49 50
000
ASUS42 KCHS 282311
RWRCHS

REGIONAL WEATHER ROUNDUP
NATIONAL WEATHER SERVICE CHARLESTON SC
600 PM EST WED JAN 28 2015

NOTE: "FAIR" INDICATES FEW OR NO CLOUDS BELOW 12,000 FEET WITH NO
SIGNIFICANT WEATHER AND/OR OBSTRUCTIONS TO VISIBILITY.

NOT ALL STATIONS ARE QUALITY CONTROLLED BY THE NATIONAL
WEATHER SERVICE. USE DATA WITH CAUTION...ESPECIALLY
DEWPOINT OBSERVATIONS.

SCZ027-030-031-034>040-042>050-290000-
...SOUTHEAST SOUTH CAROLINA...

CITY           SKY/WX    TMP DP  RH WIND       PRES   REMARKS
N CHARLESTON   CLEAR     41  22  46 N5        30.29R
WATERFRONT PRK   N/A     46 N/A N/A N7          N/A
MOUNT PLEASANT FAIR     N/A N/A N/A CALM      30.28R
PINOPOLIS      NOT AVBL
MONCKS CORNER  FAIR      45  25  45 CALM      30.28R
SUMMERVILLE    FAIR      45  25  45 CALM      30.29R
BEAUFORT MCAS  PTCLDY    43  25  49 NE6       30.29R
BEAUFORT ARPT  FAIR      45  30  57 N5        30.29R
HILTON HEAD IS CLEAR    N/A N/A N/A N3        30.28R
WALTERBORO     CLEAR     45  18  33 CALM      30.29R
ALLENDALE      FAIR      46  23  39 CALM      30.27R

...SOUTHERN MIDLANDS AND PEE DEE...

CITY           SKY/WX    TMP DP  RH WIND       PRES   REMARKS
GEORGETOWN     NOT AVBL
KINGSTREE      NOT AVBL
ORANGEBURG     CLEAR     46  20  35 N3        30.28R
BARNWELL       FAIR      46  23  39 CALM      30.28R
AIKEN          FAIR      46  21  36 CALM      30.29R
MANNING        FAIR      43  30  61 CALM      30.28R
COLUMBIA       PTCLDY    46  21  37 CALM      30.27R
SUMTER         CLEAR     45  20  36 NW2       30.26R
FLORENCE       CLEAR     44  21  40 N3        30.28R
MYRTLE BEACH   CLEAR     45  16  31 NW7       30.29R
N MYRTLE BEACH CLEAR     42  17  36 CALM      30.27R

$$

GAZ063-065-086>088-099>101-113>116-118-119-134>141-150-290000-
...SOUTHEAST GEORGIA...

CITY           SKY/WX    TMP DP  RH WIND       PRES   REMARKS
SAVANNAH ARPT  PTCLDY    47  19  33 N5        30.28R
HUNTER AAF     CLEAR     49  20  31 N5        30.26R
FORT STEWART   CLEAR     49  25  38 CALM      30.27R
STATESBORO     CLEAR     45  27  49 NE3       30.27R
SYLVANIA       CLEAR     45  29  53 CALM      30.28R
CLAXTON        FAIR      45  32  61 CALM      30.28R

...CSRA...CENTRAL AND FAR SOUTHEAST GEORGIA...

CITY           SKY/WX    TMP DP  RH WIND       PRES   REMARKS
THOMSON        CLEAR     50  29  44 CALM      30.30R
AUGUSTA-BUSH   CLEAR     47  18  31 CALM      30.27R
AUGUSTA-DANIEL CLEAR     50  16  25 CALM      30.26
SWAINSBORO     FAIR      50  12  22 CALM      30.27R
VIDALIA        CLEAR     50  27  40 NE3       30.26S
EASTMAN        FAIR      49  32  50 CALM      30.29R
HAZLEHURST     FAIR      53  28  38 CALM      30.25R
ALMA           CLEAR     51  27  39 CALM      30.26R
WAYCROSS       CLEAR     53  32  43 CALM      30.26R
JESUP          FAIR      52  32  46 CALM      30.27R
BAXLEY         FAIR      50  30  46 CALM      30.25S
BRUNSWICK      CLEAR     50  32  50 SE3       30.28R
SAINT SIMONS   CLEAR     47  31  53 E5        30.28R

$$

SCZ027-028-034-036>038-045-046-048>050-GAZ119-141-290000-
...LAKE AND SUPPLEMENTAL COASTAL OBSERVATIONS...

STATION/POSITION TIME  TEMP    WIND        PRES    WAVE   SWELL
                       AIR SEA DIR/SP/G            HT/PER HT/PER/DIR
                 (UTC) (F)     (DEG/KT/KT) (MB)    (FT/S) (FT/S/D)
UPR LAKE MARION  NOT AVBL
WINYAH BAY       NOT AVBL
LAKE MURRAY      2200   51     190/  3/  6 1024.0R
ACE BASIN NERRS  NOT AVBL
FORT PULASKI     2200      52              1025.3R
SAPELO ISLAND    2200   53      10/  6     1024.0S

$$

ANZ835-935-AMZ111-154-330-350-352-354-370-450-454-472-290000-
...C-MAN AND BUOY OBSERVATIONS...

STATION/POSITION TIME  TEMP    WIND        PRES    WAVE   SWELL
                       AIR SEA DIR/SP/G            HT/PER HT/PER/DIR
                 (UTC) (F)     (DEG/KT/KT) (MB)    (FT/S) (FT/S/D)
BUOY 41004       2250   47 65  350/ 12/ 16 1024.7R   4/ 6   3/13
BUOY 41008       2250   47 54   40/ 10/ 12 1025.1R   3/ 5   3/ 60/ 5
FOLLY BEACH CMAN 2200   46     340/  7/ 10 1025.5R
CAPERS NEARSHORE 2200   48     360/  8/ 10   N/A
FRIPP NEARSHORE  2200   48     350/  8/  8 1024.3R


STATION/POSITION TIME  TEMP    WIND        PRES    WAVE   SWELL
                       AIR SEA DIR/SP/G            HT/PER HT/PER/DIR
                 (UTC) (F)     (DEG/KT/KT) (MB)    (FT/S) (FT/S/D)
5E ST. MARYS GA  NOT AVBL
FRYING PAN BUOY  2250   46 63  360/ 14/ 17 1024.9R   4/ 6   2/ 90/12
BUOY 41025       2250   40     340/ 17/ 21 1022.6R   5/11   3/ 40/11
CAPE LOOKOUT NC  2200   42     360/ 12/ 13 1023.1R
BUOY 41002       2250   56 72  340/ 23/ 29 1019.2R  10/ 7   5/ 10/12
BUOY 41010       2220   61 76  340/ 17/ 23 1021.2R
ST AUGUSTINE FL  2300   49      20/ 13/ 15 1025.5R


$$


USA.gov is the U.S. government's official web portal to all federal, state and local government web resources and services.